Time,TemperatureF,DewpointF,PressureIn,WindDirection,WindDirectionDegrees,WindSpeedMPH,WindSpeedGustMPH,Humidity,HourlyPrecipIn,Conditions,Clouds,dailyrainin,SoftwareType,DateUTC
2013-02-27 00:03:00,29.5,16.5,29.93,NE,47,4.0,6.0,58,0.00,,---,0.00,VWS V13.01,2013-02-27 06:03:00,
2013-02-27 00:08:00,29.5,16.5,29.93,NNE,31,4.7,6.9,58,0.00,,---,0.00,VWS V13.01,2013-02-27 06:08:00,
2013-02-27 00:14:00,29.3,16.8,29.93,NE,46,6.0,6.9,59,0.00,,---,0.00,VWS V13.01,2013-02-27 06:14:00,
2013-02-27 00:20:00,29.3,16.4,29.93,NNE,26,5.6,7.8,58,0.00,,---,0.00,VWS V13.01,2013-02-27 06:20:00,
2013-02-27 00:25:00,29.3,16.4,29.93,ENE,62,4.5,6.0,58,0.00,,---,0.00,VWS V13.01,2013-02-27 06:25:00,
2013-02-27 00:31:00,29.3,16.8,29.93,NNE,20,5.6,6.5,59,0.00,,---,0.00,VWS V13.01,2013-02-27 06:31:00,
2013-02-27 00:36:00,29.3,16.8,29.93,NE,42,5.6,6.5,59,0.00,,---,0.00,VWS V13.01,2013-02-27 06:36:00,
2013-02-27 00:42:00,29.3,17.1,29.93,NE,45,6.0,6.9,60,0.00,,---,0.00,VWS V13.01,2013-02-27 06:42:00,
2013-02-27 00:47:00,29.3,16.8,29.93,East,97,7.4,8.7,59,0.00,,---,0.00,VWS V13.01,2013-02-27 06:47:00,
2013-02-27 00:53:00,29.3,16.8,29.93,NE,40,5.1,7.8,59,0.00,,---,0.00,VWS V13.01,2013-02-27 06:53:00,
2013-02-27 00:58:00,29.3,16.8,29.93,ENE,61,4.5,9.4,59,0.00,,---,0.00,VWS V13.01,2013-02-27 06:58:00,
2013-02-27 01:03:00,29.5,17.3,29.93,NE,35,4.0,6.9,60,0.00,,---,0.00,VWS V13.01,2013-02-27 07:03:00,
2013-02-27 01:08:00,29.5,17.7,29.93,ENE,60,5.1,6.5,61,0.00,,---,0.00,VWS V13.01,2013-02-27 07:08:00,
2013-02-27 01:14:00,29.3,17.5,29.93,NE,45,7.8,9.8,61,0.00,,---,0.00,VWS V13.01,2013-02-27 07:14:00,
2013-02-27 01:19:00,29.5,17.7,29.93,NE,39,8.3,8.3,61,0.00,,---,0.00,VWS V13.01,2013-02-27 07:19:00,
2013-02-27 01:25:00,29.5,17.7,29.93,ENE,57,4.5,9.4,61,0.00,,---,0.00,VWS V13.01,2013-02-27 07:25:00,
2013-02-27 01:30:00,29.5,17.7,29.93,East,88,4.0,7.8,61,0.00,,---,0.00,VWS V13.01,2013-02-27 07:30:00,
2013-02-27 01:35:00,29.5,17.7,29.93,NNE,27,8.3,8.3,61,0.00,,---,0.00,VWS V13.01,2013-02-27 07:35:00,
2013-02-27 01:41:00,29.5,17.7,29.93,NE,46,8.7,8.7,61,0.00,,---,0.00,VWS V13.01,2013-02-27 07:41:00,
2013-02-27 01:47:00,29.5,17.7,29.93,NE,48,4.0,5.6,61,0.00,,---,0.00,VWS V13.01,2013-02-27 07:47:00,
2013-02-27 01:52:00,29.5,17.7,29.93,NE,40,5.1,5.1,61,0.00,,---,0.00,VWS V13.01,2013-02-27 07:52:00,
2013-02-27 01:58:00,29.5,17.3,29.93,NE,48,5.1,7.8,60,0.00,,---,0.00,VWS V13.01,2013-02-27 07:58:00,
2013-02-27 02:03:00,29.5,17.3,29.93,NNE,14,6.5,6.5,60,0.00,,---,0.00,VWS V13.01,2013-02-27 08:03:00,
2013-02-27 02:08:00,29.5,16.9,29.93,NNE,27,6.0,9.8,59,0.00,,---,0.00,VWS V13.01,2013-02-27 08:08:00,
2013-02-27 02:13:00,29.5,16.9,29.93,NE,38,4.7,9.4,59,0.00,,---,0.00,VWS V13.01,2013-02-27 08:13:00,
2013-02-27 02:19:00,29.5,16.9,29.93,NE,41,7.8,8.3,59,0.00,,---,0.00,VWS V13.01,2013-02-27 08:19:00,
2013-02-27 02:24:00,29.7,16.7,29.93,NE,54,4.7,8.3,58,0.00,,---,0.00,VWS V13.01,2013-02-27 08:24:00,
2013-02-27 02:30:00,29.7,17.1,29.93,NE,53,7.8,7.8,59,0.00,,---,0.00,VWS V13.01,2013-02-27 08:30:00,
2013-02-27 02:36:00,29.7,16.7,29.93,NNE,16,5.6,8.7,58,0.00,,---,0.00,VWS V13.01,2013-02-27 08:36:00,
2013-02-27 02:41:00,29.7,16.7,29.93,ENE,69,5.6,7.8,58,0.00,,---,0.00,VWS V13.01,2013-02-27 08:41:00,
2013-02-27 02:47:00,29.7,16.7,29.93,NNE,29,6.5,6.9,58,0.00,,---,0.00,VWS V13.01,2013-02-27 08:47:00,
2013-02-27 02:52:00,29.7,16.7,29.93,ENE,57,4.5,7.4,58,0.00,,---,0.00,VWS V13.01,2013-02-27 08:52:00,
2013-02-27 02:57:00,29.7,17.1,29.93,NE,37,4.7,4.7,59,0.00,,---,0.00,VWS V13.01,2013-02-27 08:57:00,
2013-02-27 03:02:00,29.7,17.1,29.93,NNE,21,6.0,6.5,59,0.00,,---,0.00,VWS V13.01,2013-02-27 09:02:00,
2013-02-27 03:08:00,29.7,17.1,29.93,East,82,4.7,7.4,59,0.00,,---,0.00,VWS V13.01,2013-02-27 09:08:00,
2013-02-27 03:13:00,29.8,17.7,29.90,NNE,26,6.9,9.8,60,0.00,,---,0.00,VWS V13.01,2013-02-27 09:13:00,
2013-02-27 03:18:00,29.8,17.7,29.90,NE,45,6.9,6.9,60,0.00,,---,0.00,VWS V13.01,2013-02-27 09:18:00,
2013-02-27 03:24:00,29.8,17.7,29.90,NE,49,5.6,5.6,60,0.00,,---,0.00,VWS V13.01,2013-02-27 09:24:00,
2013-02-27 03:29:00,29.8,18.0,29.90,NNE,32,6.0,8.3,61,0.00,,---,0.00,VWS V13.01,2013-02-27 09:29:00,
2013-02-27 03:34:00,29.8,18.0,29.90,NE,35,5.1,6.0,61,0.00,,---,0.00,VWS V13.01,2013-02-27 09:34:00,
2013-02-27 03:39:00,29.8,18.0,29.90,ENE,57,5.6,13.0,61,0.00,,---,0.00,VWS V13.01,2013-02-27 09:39:00,
2013-02-27 03:44:00,30.0,18.2,29.93,NNW,345,3.1,6.9,61,0.00,,---,0.00,VWS V13.01,2013-02-27 09:44:00,
2013-02-27 03:49:00,30.0,18.2,29.93,NE,38,6.9,6.9,61,0.00,,---,0.00,VWS V13.01,2013-02-27 09:49:00,
2013-02-27 03:54:00,30.0,18.2,29.93,NNE,29,4.7,5.1,61,0.00,,---,0.00,VWS V13.01,2013-02-27 09:54:00,
2013-02-27 03:59:00,30.0,18.2,29.90,NNE,23,3.1,6.9,61,0.00,,---,0.00,VWS V13.01,2013-02-27 09:59:00,
2013-02-27 04:04:00,29.8,18.0,29.90,ENE,69,6.5,8.7,61,0.00,,---,0.00,VWS V13.01,2013-02-27 10:04:00,
2013-02-27 04:09:00,29.8,18.0,29.90,NNE,32,5.6,5.6,61,0.00,,---,0.00,VWS V13.01,2013-02-27 10:09:00,
2013-02-27 04:14:00,29.8,18.0,29.90,NNE,30,4.7,6.5,61,0.00,,---,0.00,VWS V13.01,2013-02-27 10:14:00,
2013-02-27 04:20:00,29.8,18.0,29.90,NNE,16,9.4,12.1,61,0.00,,---,0.00,VWS V13.01,2013-02-27 10:20:00,
2013-02-27 04:26:00,29.8,18.0,29.90,NNE,24,6.0,6.9,61,0.00,,---,0.00,VWS V13.01,2013-02-27 10:26:00,
2013-02-27 04:31:00,29.8,17.7,29.90,NE,56,4.7,4.7,60,0.00,,---,0.00,VWS V13.01,2013-02-27 10:31:00,
2013-02-27 04:36:00,29.8,17.3,29.90,NE,56,8.3,10.3,59,0.00,,---,0.00,VWS V13.01,2013-02-27 10:36:00,
2013-02-27 04:43:00,30.0,17.0,29.90,NE,51,6.5,7.8,58,0.00,,---,0.00,VWS V13.01,2013-02-27 10:43:00,
2013-02-27 04:48:00,30.0,16.6,29.90,NNE,32,6.5,6.5,57,0.00,,---,0.00,VWS V13.01,2013-02-27 10:48:00,
2013-02-27 04:53:00,30.0,16.6,29.90,NE,50,5.6,7.8,57,0.00,,---,0.00,VWS V13.01,2013-02-27 10:53:00,
2013-02-27 04:59:00,30.0,16.6,29.90,NNE,12,3.1,6.5,57,0.00,,---,0.00,VWS V13.01,2013-02-27 10:59:00,
2013-02-27 05:04:00,30.0,16.6,29.90,NNE,24,7.4,7.4,57,0.00,,---,0.00,VWS V13.01,2013-02-27 11:04:00,
2013-02-27 05:10:00,30.0,16.6,29.90,NNE,17,4.5,6.0,57,0.00,,---,0.00,VWS V13.01,2013-02-27 11:10:00,
2013-02-27 05:16:00,30.0,16.2,29.90,ENE,57,4.0,7.8,56,0.00,,---,0.00,VWS V13.01,2013-02-27 11:16:00,
2013-02-27 05:21:00,30.2,16.4,29.90,North,4,6.0,7.4,56,0.00,,---,0.00,VWS V13.01,2013-02-27 11:21:00,
2013-02-27 05:26:00,30.2,16.4,29.90,ENE,73,6.0,8.3,56,0.00,,---,0.00,VWS V13.01,2013-02-27 11:26:00,
2013-02-27 05:31:00,30.2,16.8,29.90,North,9,4.7,5.1,57,0.00,,---,0.00,VWS V13.01,2013-02-27 11:31:00,
2013-02-27 05:36:00,30.2,16.4,29.90,NNE,25,4.7,5.6,56,0.00,,---,0.00,VWS V13.01,2013-02-27 11:36:00,
2013-02-27 05:42:00,30.0,16.2,29.90,NNE,16,3.6,4.0,56,0.00,,---,0.00,VWS V13.01,2013-02-27 11:42:00,
2013-02-27 05:47:00,30.0,16.6,29.90,North,8,6.0,8.7,57,0.00,,---,0.00,VWS V13.01,2013-02-27 11:47:00,
2013-02-27 05:52:00,30.0,17.0,29.90,ENE,66,6.5,6.5,58,0.00,,---,0.00,VWS V13.01,2013-02-27 11:52:00,
2013-02-27 05:57:00,30.0,17.8,29.90,NE,40,5.1,6.9,60,0.00,,---,0.00,VWS V13.01,2013-02-27 11:57:00,
2013-02-27 06:02:00,30.0,18.2,29.90,NNE,30,5.6,7.4,61,0.00,,---,0.00,VWS V13.01,2013-02-27 12:02:00,
2013-02-27 06:07:00,30.0,18.6,29.90,NNE,26,4.0,6.9,62,0.00,,---,0.00,VWS V13.01,2013-02-27 12:07:00,
2013-02-27 06:13:00,30.0,18.6,29.90,NNE,27,5.1,8.7,62,0.00,,---,0.00,VWS V13.01,2013-02-27 12:13:00,
2013-02-27 06:18:00,30.0,19.0,29.90,NNE,20,6.5,6.5,63,0.00,,---,0.00,VWS V13.01,2013-02-27 12:18:00,
2013-02-27 06:23:00,29.8,18.8,29.90,NE,42,6.9,6.9,63,0.00,,---,0.00,VWS V13.01,2013-02-27 12:23:00,
2013-02-27 06:28:00,29.8,18.8,29.90,NE,55,6.9,6.9,63,0.00,,---,0.00,VWS V13.01,2013-02-27 12:28:00,
2013-02-27 06:33:00,29.8,18.8,29.90,ENE,70,4.7,7.4,63,0.00,,---,0.00,VWS V13.01,2013-02-27 12:33:00,
2013-02-27 06:38:00,29.7,18.2,29.90,NE,35,7.4,7.8,62,0.00,,---,0.00,VWS V13.01,2013-02-27 12:38:00,
2013-02-27 06:44:00,29.7,18.2,29.90,North,9,5.6,6.0,62,0.00,,---,0.00,VWS V13.01,2013-02-27 12:44:00,
2013-02-27 06:49:00,29.7,18.2,29.90,NE,39,8.3,8.9,62,0.00,,---,0.00,VWS V13.01,2013-02-27 12:49:00,
2013-02-27 06:54:00,29.7,18.2,29.90,North,3,6.5,8.9,62,0.00,,---,0.00,VWS V13.01,2013-02-27 12:54:00,
2013-02-27 06:59:00,29.7,18.2,29.90,ENE,78,6.0,6.0,62,0.00,,---,0.00,VWS V13.01,2013-02-27 12:59:00,
2013-02-27 07:05:00,29.5,18.1,29.90,ENE,60,9.8,9.8,62,0.00,,---,0.00,VWS V13.01,2013-02-27 13:05:00,
2013-02-27 07:11:00,29.5,18.1,29.90,ENE,60,8.3,8.9,62,0.00,,---,0.00,VWS V13.01,2013-02-27 13:11:00,
2013-02-27 07:16:00,29.5,18.1,29.90,NE,47,6.0,8.3,62,0.00,,---,0.00,VWS V13.01,2013-02-27 13:16:00,
2013-02-27 07:22:00,29.5,18.1,29.90,North,7,4.7,6.0,62,0.00,,---,0.00,VWS V13.01,2013-02-27 13:22:00,
2013-02-27 07:28:00,29.5,18.1,29.90,East,91,5.6,8.7,62,0.00,,---,0.00,VWS V13.01,2013-02-27 13:28:00,
2013-02-27 07:33:00,29.5,18.8,29.90,NNW,343,7.4,10.3,64,0.00,,---,0.00,VWS V13.01,2013-02-27 13:33:00,
2013-02-27 07:39:00,29.3,19.0,29.90,NE,50,6.0,6.5,65,0.00,,---,0.00,VWS V13.01,2013-02-27 13:39:00,
2013-02-27 07:45:00,29.3,19.4,29.90,NE,49,4.7,6.0,66,0.00,,---,0.00,VWS V13.01,2013-02-27 13:45:00,
2013-02-27 07:50:00,29.3,19.4,29.90,ENE,65,4.7,6.9,66,0.00,,---,0.00,VWS V13.01,2013-02-27 13:50:00,
2013-02-27 07:56:00,29.3,19.4,29.90,NE,45,5.1,6.0,66,0.00,,---,0.00,VWS V13.01,2013-02-27 13:56:00,
2013-02-27 08:01:00,29.3,19.0,29.90,NNE,20,6.0,9.4,65,0.00,,---,0.00,VWS V13.01,2013-02-27 14:01:00,
2013-02-27 08:07:00,29.3,18.3,29.90,NE,45,7.8,10.7,63,0.00,,---,0.00,VWS V13.01,2013-02-27 14:07:00,
2013-02-27 08:13:00,29.3,17.9,29.90,NNE,31,6.0,8.7,62,0.00,,---,0.00,VWS V13.01,2013-02-27 14:13:00,
2013-02-27 08:19:00,29.3,17.5,29.90,NE,43,8.7,8.7,61,0.00,,---,0.00,VWS V13.01,2013-02-27 14:19:00,
2013-02-27 08:25:00,29.5,17.3,29.90,NNE,18,4.0,6.5,60,0.00,,---,0.00,VWS V13.01,2013-02-27 14:25:00,
2013-02-27 08:31:00,29.5,17.7,29.90,NE,41,7.4,7.4,61,0.00,,---,0.00,VWS V13.01,2013-02-27 14:31:00,
2013-02-27 08:36:00,29.5,17.3,29.90,NE,37,7.8,8.3,60,0.00,,---,0.00,VWS V13.01,2013-02-27 14:36:00,
2013-02-27 08:41:00,29.5,17.3,29.90,NNE,31,11.2,11.2,60,0.00,,---,0.00,VWS V13.01,2013-02-27 14:41:00,
2013-02-27 08:47:00,29.5,17.3,29.90,ESE,105,6.5,9.8,60,0.00,,---,0.00,VWS V13.01,2013-02-27 14:47:00,
2013-02-27 08:53:00,29.5,17.3,29.90,NE,55,5.1,9.8,60,0.00,,---,0.00,VWS V13.01,2013-02-27 14:53:00,
2013-02-27 08:58:00,29.5,17.7,29.90,North,6,7.4,11.6,61,0.00,,---,0.00,VWS V13.01,2013-02-27 14:58:00,
2013-02-27 09:04:00,29.5,17.7,29.90,NE,39,3.6,8.7,61,0.00,,---,0.00,VWS V13.01,2013-02-27 15:04:00,
2013-02-27 09:09:00,29.5,17.3,29.90,NE,55,6.0,8.9,60,0.00,,---,0.00,VWS V13.01,2013-02-27 15:09:00,
2013-02-27 09:15:00,29.5,17.7,29.90,NNE,26,7.8,7.8,61,0.00,,---,0.00,VWS V13.01,2013-02-27 15:15:00,
2013-02-27 09:21:00,29.5,17.3,29.90,NE,54,10.7,10.7,60,0.00,,---,0.00,VWS V13.01,2013-02-27 15:21:00,
2013-02-27 09:26:00,29.5,17.3,29.90,NE,38,7.8,10.3,60,0.00,,---,0.00,VWS V13.01,2013-02-27 15:26:00,
2013-02-27 09:31:00,29.5,17.3,29.90,NE,45,7.4,7.4,60,0.00,,---,0.00,VWS V13.01,2013-02-27 15:31:00,
2013-02-27 09:36:00,29.5,17.7,29.90,ENE,60,4.7,4.7,61,0.00,,---,0.00,VWS V13.01,2013-02-27 15:36:00,
2013-02-27 09:41:00,29.5,18.1,29.90,NE,51,6.0,6.0,62,0.00,,---,0.00,VWS V13.01,2013-02-27 15:41:00,
2013-02-27 09:47:00,29.5,18.5,29.90,NE,50,8.7,8.7,63,0.00,,---,0.00,VWS V13.01,2013-02-27 15:47:00,
2013-02-27 09:53:00,29.3,18.6,29.90,NNE,12,10.3,10.3,64,0.00,,---,0.00,VWS V13.01,2013-02-27 15:53:00,
2013-02-27 09:59:00,29.3,19.0,29.90,NE,43,4.7,6.5,65,0.00,,---,0.00,VWS V13.01,2013-02-27 15:59:00,
2013-02-27 10:05:00,29.3,18.3,29.90,NNE,15,6.9,8.9,63,0.00,,---,0.00,VWS V13.01,2013-02-27 16:05:00,
2013-02-27 10:12:00,29.3,18.3,29.90,NNE,12,5.6,9.8,63,0.00,,---,0.00,VWS V13.01,2013-02-27 16:12:00,
2013-02-27 10:18:00,29.3,18.6,29.90,NE,41,6.5,8.7,64,0.00,,---,0.00,VWS V13.01,2013-02-27 16:18:00,
2013-02-27 10:23:00,29.3,18.6,29.90,East,93,4.7,10.3,64,0.00,,---,0.00,VWS V13.01,2013-02-27 16:23:00,
2013-02-27 10:28:00,29.3,18.6,29.90,NE,41,8.7,10.7,64,0.00,,---,0.00,VWS V13.01,2013-02-27 16:28:00,
2013-02-27 10:33:00,29.3,19.0,29.90,NNE,13,5.6,8.9,65,0.00,,---,0.00,VWS V13.01,2013-02-27 16:33:00,
2013-02-27 10:39:00,29.1,19.2,29.90,North,11,7.8,7.8,66,0.00,,---,0.00,VWS V13.01,2013-02-27 16:39:00,
2013-02-27 10:44:00,29.1,19.5,29.93,NE,45,6.0,7.8,67,0.00,,---,0.00,VWS V13.01,2013-02-27 16:44:00,
2013-02-27 10:50:00,29.1,19.9,29.93,NNE,24,4.7,8.3,68,0.00,,---,0.00,VWS V13.01,2013-02-27 16:50:00,
2013-02-27 10:56:00,29.3,19.7,29.93,NE,45,6.5,6.5,67,0.00,,---,0.00,VWS V13.01,2013-02-27 16:56:00,
2013-02-27 11:01:00,29.1,19.5,29.93,NE,42,7.4,9.4,67,0.00,,---,0.00,VWS V13.01,2013-02-27 17:01:00,
2013-02-27 11:06:00,29.1,19.5,29.93,NNE,18,4.7,6.9,67,0.00,,---,0.00,VWS V13.01,2013-02-27 17:06:00,
2013-02-27 11:11:00,28.9,19.4,29.93,East,94,8.7,8.9,67,0.00,,---,0.00,VWS V13.01,2013-02-27 17:11:00,
2013-02-27 11:17:00,28.9,19.4,29.90,NE,45,4.5,5.1,67,0.00,,---,0.00,VWS V13.01,2013-02-27 17:17:00,
2013-02-27 11:22:00,29.1,19.5,29.90,NE,45,7.4,9.4,67,0.00,,---,0.00,VWS V13.01,2013-02-27 17:22:00,
2013-02-27 11:28:00,28.9,19.4,29.93,NE,52,5.6,6.5,67,0.00,,---,0.00,VWS V13.01,2013-02-27 17:28:00,
2013-02-27 11:33:00,28.9,19.4,29.93,NE,49,5.6,9.4,67,0.00,,---,0.00,VWS V13.01,2013-02-27 17:33:00,
2013-02-27 11:39:00,28.9,19.4,29.93,NNE,26,7.8,7.8,67,0.00,,---,0.00,VWS V13.01,2013-02-27 17:39:00,
2013-02-27 11:45:00,28.9,19.4,29.93,ENE,63,6.9,9.8,67,0.00,,---,0.00,VWS V13.01,2013-02-27 17:45:00,
2013-02-27 11:51:00,29.1,19.5,29.93,NNE,21,8.7,9.8,67,0.00,,---,0.00,VWS V13.01,2013-02-27 17:51:00,
2013-02-27 11:56:00,29.1,19.5,29.93,NE,50,4.7,6.9,67,0.00,,---,0.00,VWS V13.01,2013-02-27 17:56:00,
2013-02-27 12:01:00,29.3,19.7,29.90,NE,41,6.5,8.9,67,0.00,,---,0.00,VWS V13.01,2013-02-27 18:01:00,
2013-02-27 12:06:00,29.3,19.7,29.90,NE,41,7.8,7.8,67,0.00,,---,0.00,VWS V13.01,2013-02-27 18:06:00,
2013-02-27 12:12:00,29.1,19.5,29.93,NNE,14,4.7,6.0,67,0.00,,---,0.00,VWS V13.01,2013-02-27 18:12:00,
2013-02-27 12:17:00,28.9,19.7,29.93,North,9,7.4,9.4,68,0.00,,---,0.00,VWS V13.01,2013-02-27 18:17:00,
2013-02-27 12:22:00,28.8,19.9,29.93,NNE,27,9.8,9.8,69,0.00,,---,0.00,VWS V13.01,2013-02-27 18:22:00,
2013-02-27 12:27:00,28.8,19.9,29.93,NE,45,7.8,7.8,69,0.00,,---,0.00,VWS V13.01,2013-02-27 18:27:00,
2013-02-27 12:33:00,28.6,19.7,29.93,NNE,30,10.7,11.2,69,0.00,,---,0.00,VWS V13.01,2013-02-27 18:33:00,
2013-02-27 12:38:00,28.6,19.7,29.93,NE,50,5.6,6.0,69,0.00,,---,0.00,VWS V13.01,2013-02-27 18:38:00,
2013-02-27 12:44:00,28.6,19.7,29.93,North,10,8.9,8.9,69,0.00,,---,0.00,VWS V13.01,2013-02-27 18:44:00,
2013-02-27 12:49:00,28.4,19.5,29.93,NE,40,5.1,6.9,69,0.00,,---,0.00,VWS V13.01,2013-02-27 18:49:00,
2013-02-27 12:55:00,28.6,19.7,29.93,NNE,20,9.4,10.7,69,0.00,,---,0.00,VWS V13.01,2013-02-27 18:55:00,
2013-02-27 13:00:00,28.6,19.7,29.93,North,2,6.0,7.4,69,0.00,,---,0.00,VWS V13.01,2013-02-27 19:00:00,
2013-02-27 13:05:00,28.4,19.2,29.93,NE,34,8.9,8.9,68,0.00,,---,0.00,VWS V13.01,2013-02-27 19:05:00,
2013-02-27 13:10:00,28.2,19.0,29.93,North,7,4.7,6.9,68,0.00,,---,0.00,VWS V13.01,2013-02-27 19:10:00,
2013-02-27 13:15:00,28.2,19.0,29.93,North,357,5.6,6.9,68,0.00,,---,0.00,VWS V13.01,2013-02-27 19:15:00,
2013-02-27 13:21:00,28.2,19.0,29.93,NNE,32,7.4,7.4,68,0.00,,---,0.00,VWS V13.01,2013-02-27 19:21:00,
2013-02-27 13:26:00,28.2,18.7,29.93,North,1,5.6,7.4,67,0.00,,---,0.00,VWS V13.01,2013-02-27 19:26:00,
2013-02-27 13:32:00,28.0,18.5,29.93,NNE,13,5.6,8.9,67,0.00,,---,0.00,VWS V13.01,2013-02-27 19:32:00,
2013-02-27 13:37:00,28.0,18.2,29.93,North,9,5.6,7.8,66,0.00,,---,0.00,VWS V13.01,2013-02-27 19:37:00,
2013-02-27 13:43:00,28.0,18.2,29.93,NE,34,10.7,10.7,66,0.00,,---,0.00,VWS V13.01,2013-02-27 19:43:00,
2013-02-27 13:48:00,28.0,18.2,29.93,North,357,4.7,6.0,66,0.00,,---,0.00,VWS V13.01,2013-02-27 19:48:00,
2013-02-27 13:54:00,28.0,18.2,29.93,NE,34,7.4,10.7,66,0.00,,---,0.00,VWS V13.01,2013-02-27 19:54:00,
2013-02-27 13:59:00,28.0,17.8,29.93,North,3,6.9,8.3,65,0.00,,---,0.00,VWS V13.01,2013-02-27 19:59:00,
2013-02-27 14:04:00,28.0,17.8,29.93,NE,38,6.5,6.9,65,0.00,,---,0.00,VWS V13.01,2013-02-27 20:04:00,
2013-02-27 14:10:00,28.2,18.0,29.93,North,11,4.7,7.4,65,0.00,,---,0.00,VWS V13.01,2013-02-27 20:10:00,
2013-02-27 14:15:00,28.2,18.0,29.93,NNE,27,7.4,7.4,65,0.00,,---,0.00,VWS V13.01,2013-02-27 20:15:00,
2013-02-27 14:21:00,28.4,18.1,29.93,NNE,28,5.1,6.0,65,0.00,,---,0.00,VWS V13.01,2013-02-27 20:21:00,
2013-02-27 14:26:00,28.6,18.0,29.93,NE,40,4.5,6.0,64,0.00,,---,0.00,VWS V13.01,2013-02-27 20:26:00,
2013-02-27 14:31:00,28.6,18.0,29.93,North,357,5.6,6.0,64,0.00,,---,0.00,VWS V13.01,2013-02-27 20:31:00,
2013-02-27 14:36:00,28.8,18.1,29.93,North,3,4.5,5.6,64,0.00,,---,0.00,VWS V13.01,2013-02-27 20:36:00,
2013-02-27 14:41:00,28.8,18.1,29.93,NE,36,6.9,7.4,64,0.00,,---,0.00,VWS V13.01,2013-02-27 20:41:00,
2013-02-27 14:46:00,28.9,17.9,29.93,NNE,18,5.6,6.5,63,0.00,,---,0.00,VWS V13.01,2013-02-27 20:46:00,
2013-02-27 14:51:00,29.1,18.1,29.93,NNE,16,6.5,7.4,63,0.00,,---,0.00,VWS V13.01,2013-02-27 20:51:00,
2013-02-27 14:57:00,29.3,18.3,29.93,North,357,4.7,5.6,63,0.00,,---,0.00,VWS V13.01,2013-02-27 20:57:00,
2013-02-27 15:02:00,29.5,18.5,29.93,NNE,24,5.1,5.1,63,0.00,,---,0.00,VWS V13.01,2013-02-27 21:02:00,
2013-02-27 15:07:00,29.5,18.1,29.93,North,10,4.0,5.1,62,0.00,,---,0.00,VWS V13.01,2013-02-27 21:07:00,
2013-02-27 15:12:00,29.7,18.2,29.93,North,9,6.0,8.7,62,0.00,,---,0.00,VWS V13.01,2013-02-27 21:12:00,
2013-02-27 15:17:00,29.8,18.4,29.93,NE,52,7.4,7.4,62,0.00,,---,0.00,VWS V13.01,2013-02-27 21:17:00,
2013-02-27 15:23:00,30.0,18.2,29.93,NNE,28,10.7,10.7,61,0.00,,---,0.00,VWS V13.01,2013-02-27 21:23:00,
2013-02-27 15:29:00,30.2,17.6,29.93,NNE,28,6.5,8.9,59,0.00,,---,0.00,VWS V13.01,2013-02-27 21:29:00,
2013-02-27 15:34:00,30.4,17.4,29.93,NNE,12,8.3,8.3,58,0.00,,---,0.00,VWS V13.01,2013-02-27 21:34:00,
2013-02-27 15:40:00,30.4,17.0,29.93,NNE,13,6.5,8.3,57,0.00,,---,0.00,VWS V13.01,2013-02-27 21:40:00,
2013-02-27 15:45:00,30.6,17.1,29.93,NNE,30,6.0,6.0,57,0.00,,---,0.00,VWS V13.01,2013-02-27 21:45:00,
2013-02-27 15:50:00,30.6,16.7,29.93,NE,43,7.4,8.3,56,0.00,,---,0.00,VWS V13.01,2013-02-27 21:50:00,
2013-02-27 15:55:00,30.6,16.7,29.93,ENE,59,6.0,7.4,56,0.00,,---,0.00,VWS V13.01,2013-02-27 21:55:00,
2013-02-27 16:01:00,30.6,16.7,29.93,East,82,6.0,6.5,56,0.00,,---,0.00,VWS V13.01,2013-02-27 22:01:00,
2013-02-27 16:06:00,30.6,16.7,29.93,NNE,14,5.1,10.7,56,0.00,,---,0.00,VWS V13.01,2013-02-27 22:06:00,
2013-02-27 16:12:00,30.6,16.3,29.93,NNE,12,6.0,8.7,55,0.00,,---,0.00,VWS V13.01,2013-02-27 22:12:00,
2013-02-27 16:17:00,30.6,16.3,29.93,NE,41,7.4,8.3,55,0.00,,---,0.00,VWS V13.01,2013-02-27 22:17:00,
2013-02-27 16:22:00,30.6,15.9,29.93,NNE,25,10.7,10.7,54,0.00,,---,0.00,VWS V13.01,2013-02-27 22:22:00,
2013-02-27 16:28:00,30.7,16.1,29.93,NNE,22,5.6,8.9,54,0.00,,---,0.00,VWS V13.01,2013-02-27 22:28:00,
2013-02-27 16:33:00,30.7,16.1,29.93,NE,46,5.6,9.8,54,0.00,,---,0.00,VWS V13.01,2013-02-27 22:33:00,
2013-02-27 16:39:00,30.7,16.1,29.93,NE,38,4.7,6.5,54,0.00,,---,0.00,VWS V13.01,2013-02-27 22:39:00,
2013-02-27 16:44:00,30.7,16.1,29.96,NE,35,4.7,6.0,54,0.00,,---,0.00,VWS V13.01,2013-02-27 22:44:00,
2013-02-27 16:49:00,30.7,16.1,29.96,North,2,4.7,8.3,54,0.00,,---,0.00,VWS V13.01,2013-02-27 22:49:00,
2013-02-27 16:54:00,30.7,15.6,29.96,North,9,5.1,9.8,53,0.00,,---,0.00,VWS V13.01,2013-02-27 22:54:00,
2013-02-27 16:59:00,30.7,15.6,29.96,NE,34,4.7,6.9,53,0.00,,---,0.00,VWS V13.01,2013-02-27 22:59:00,
2013-02-27 17:04:00,30.7,15.6,29.96,NNE,13,5.1,6.5,53,0.00,,---,0.00,VWS V13.01,2013-02-27 23:04:00,
2013-02-27 17:09:00,30.7,15.2,29.96,NE,35,7.8,9.8,52,0.00,,---,0.00,VWS V13.01,2013-02-27 23:09:00,
2013-02-27 17:14:00,30.9,15.4,29.96,NE,36,6.5,7.8,52,0.00,,---,0.00,VWS V13.01,2013-02-27 23:14:00,
2013-02-27 17:19:00,30.9,15.4,29.96,NE,42,7.8,8.9,52,0.00,,---,0.00,VWS V13.01,2013-02-27 23:19:00,
2013-02-27 17:24:00,30.9,15.4,29.96,ENE,61,10.3,10.3,52,0.00,,---,0.00,VWS V13.01,2013-02-27 23:24:00,
2013-02-27 17:29:00,30.9,14.9,29.96,NNE,33,5.1,8.3,51,0.00,,---,0.00,VWS V13.01,2013-02-27 23:29:00,
2013-02-27 17:34:00,30.9,14.9,29.96,North,4,4.7,6.5,51,0.00,,---,0.00,VWS V13.01,2013-02-27 23:34:00,
2013-02-27 17:39:00,30.9,14.9,29.96,NE,50,7.4,7.4,51,0.00,,---,0.00,VWS V13.01,2013-02-27 23:39:00,
2013-02-27 17:44:00,30.9,14.9,29.96,NE,41,7.4,9.4,51,0.00,,---,0.00,VWS V13.01,2013-02-27 23:44:00,
2013-02-27 17:50:00,30.9,14.9,29.96,NNE,23,5.6,6.0,51,0.00,,---,0.00,VWS V13.01,2013-02-27 23:50:00,
2013-02-27 17:55:00,30.9,14.9,29.96,NNE,24,5.1,5.6,51,0.00,,---,0.00,VWS V13.01,2013-02-27 23:55:00,
2013-02-27 18:00:00,30.9,14.9,29.96,North,3,4.0,5.1,51,0.00,,---,0.00,VWS V13.01,2013-02-28 00:00:00,
2013-02-27 18:05:00,30.9,14.9,29.96,NNE,12,6.0,6.9,51,0.00,,---,0.00,VWS V13.01,2013-02-28 00:05:00,
2013-02-27 18:10:00,30.9,14.9,29.96,North,4,5.1,5.6,51,0.00,,---,0.00,VWS V13.01,2013-02-28 00:10:00,
2013-02-27 18:15:00,30.7,14.8,29.96,NNE,27,5.6,6.5,51,0.00,,---,0.00,VWS V13.01,2013-02-28 00:15:00,
2013-02-27 18:20:00,30.7,14.8,29.96,NNE,26,5.1,6.9,51,0.00,,---,0.00,VWS V13.01,2013-02-28 00:20:00,
2013-02-27 18:25:00,30.7,14.8,29.96,North,5,4.0,4.7,51,0.00,,---,0.00,VWS V13.01,2013-02-28 00:25:00,
2013-02-27 18:31:00,30.7,14.8,29.99,North,10,4.7,6.0,51,0.00,,---,0.00,VWS V13.01,2013-02-28 00:31:00,
2013-02-27 18:36:00,30.7,14.8,29.99,NNE,32,5.1,5.1,51,0.00,,---,0.00,VWS V13.01,2013-02-28 00:36:00,
2013-02-27 18:42:00,30.6,14.6,29.99,NE,39,6.5,6.5,51,0.00,,---,0.00,VWS V13.01,2013-02-28 00:42:00,
2013-02-27 18:47:00,30.6,14.6,29.99,NNE,19,9.8,9.8,51,0.00,,---,0.00,VWS V13.01,2013-02-28 00:47:00,
2013-02-27 18:53:00,30.6,14.6,29.99,North,5,4.7,5.6,51,0.00,,---,0.00,VWS V13.01,2013-02-28 00:53:00,
2013-02-27 18:58:00,30.6,15.0,29.99,North,1,5.6,8.3,52,0.00,,---,0.00,VWS V13.01,2013-02-28 00:58:00,
2013-02-27 19:03:00,30.4,14.9,29.99,North,5,4.7,7.4,52,0.00,,---,0.00,VWS V13.01,2013-02-28 01:03:00,
2013-02-27 19:08:00,30.2,14.3,29.99,NE,34,7.4,9.8,51,0.00,,---,0.00,VWS V13.01,2013-02-28 01:08:00,
2013-02-27 19:13:00,30.2,14.3,29.99,North,10,4.7,8.7,51,0.00,,---,0.00,VWS V13.01,2013-02-28 01:13:00,
2013-02-27 19:19:00,30.2,14.3,29.99,North,3,6.9,6.9,51,0.00,,---,0.00,VWS V13.01,2013-02-28 01:19:00,
2013-02-27 19:24:00,30.2,14.3,29.99,North,7,8.7,8.7,51,0.00,,---,0.00,VWS V13.01,2013-02-28 01:24:00,
2013-02-27 19:29:00,30.2,14.3,29.99,NNE,18,6.0,6.9,51,0.00,,---,0.00,VWS V13.01,2013-02-28 01:29:00,
2013-02-27 19:34:00,30.2,13.8,29.99,NNE,30,6.0,7.4,50,0.00,,---,0.00,VWS V13.01,2013-02-28 01:34:00,
2013-02-27 19:40:00,30.2,13.8,29.99,North,7,6.9,6.9,50,0.00,,---,0.00,VWS V13.01,2013-02-28 01:40:00,
2013-02-27 19:46:00,30.2,13.8,29.99,NNE,14,4.7,6.9,50,0.00,,---,0.00,VWS V13.01,2013-02-28 01:46:00,
2013-02-27 19:52:00,30.0,13.2,29.99,NNE,22,6.0,8.3,49,0.00,,---,0.00,VWS V13.01,2013-02-28 01:52:00,
2013-02-27 19:57:00,30.0,13.2,29.99,NNE,32,6.9,8.3,49,0.00,,---,0.00,VWS V13.01,2013-02-28 01:57:00,
2013-02-27 20:03:00,30.2,13.4,29.99,NNE,20,4.5,6.5,49,0.00,,---,0.00,VWS V13.01,2013-02-28 02:03:00,
2013-02-27 20:08:00,30.2,13.4,29.99,North,357,5.6,8.7,49,0.00,,---,0.00,VWS V13.01,2013-02-28 02:08:00,
2013-02-27 20:14:00,30.2,13.4,29.99,NE,46,6.9,8.9,49,0.00,,---,0.00,VWS V13.01,2013-02-28 02:14:00,
2013-02-27 20:19:00,30.2,13.8,29.99,NNE,31,8.3,8.7,50,0.00,,---,0.00,VWS V13.01,2013-02-28 02:19:00,
2013-02-27 20:24:00,30.2,13.8,29.99,NNE,32,6.5,7.8,50,0.00,,---,0.00,VWS V13.01,2013-02-28 02:24:00,
2013-02-27 20:30:00,30.2,14.3,29.99,North,357,6.5,9.4,51,0.00,,---,0.00,VWS V13.01,2013-02-28 02:30:00,
2013-02-27 20:35:00,30.2,14.3,29.99,NNE,29,6.9,6.9,51,0.00,,---,0.00,VWS V13.01,2013-02-28 02:35:00,
2013-02-27 20:41:00,30.2,14.7,29.99,NE,37,9.4,9.4,52,0.00,,---,0.00,VWS V13.01,2013-02-28 02:41:00,
2013-02-27 20:47:00,30.2,14.7,29.99,NE,38,5.1,6.5,52,0.00,,---,0.00,VWS V13.01,2013-02-28 02:47:00,
2013-02-27 20:52:00,30.2,14.7,29.99,NNE,12,4.7,5.1,52,0.00,,---,0.00,VWS V13.01,2013-02-28 02:52:00,
2013-02-27 20:57:00,30.2,14.7,29.99,North,357,5.1,7.4,52,0.00,,---,0.00,VWS V13.01,2013-02-28 02:57:00,
2013-02-27 21:02:00,30.2,14.7,29.99,North,357,8.9,8.9,52,0.00,,---,0.00,VWS V13.01,2013-02-28 03:02:00,
2013-02-27 21:08:00,30.2,14.7,29.99,NNE,27,7.8,9.8,52,0.00,,---,0.00,VWS V13.01,2013-02-28 03:08:00,
2013-02-27 21:13:00,30.2,14.7,29.99,NNE,20,4.0,7.8,52,0.00,,---,0.00,VWS V13.01,2013-02-28 03:13:00,
2013-02-27 21:19:00,30.2,15.1,29.99,NE,35,6.5,9.8,53,0.00,,---,0.00,VWS V13.01,2013-02-28 03:19:00,
2013-02-27 21:24:00,30.0,15.0,29.99,NE,34,6.0,7.8,53,0.00,,---,0.00,VWS V13.01,2013-02-28 03:24:00,
2013-02-27 21:30:00,30.0,15.0,29.99,NNE,19,4.7,5.6,53,0.00,,---,0.00,VWS V13.01,2013-02-28 03:30:00,
2013-02-27 21:35:00,30.0,15.0,29.99,NNE,29,8.7,9.4,53,0.00,,---,0.00,VWS V13.01,2013-02-28 03:35:00,
2013-02-27 21:40:00,30.0,15.4,29.99,NE,35,8.9,8.9,54,0.00,,---,0.00,VWS V13.01,2013-02-28 03:40:00,
2013-02-27 21:46:00,29.8,15.2,29.99,NE,48,8.9,8.9,54,0.00,,---,0.00,VWS V13.01,2013-02-28 03:46:00,
2013-02-27 21:51:00,29.8,14.8,29.99,North,357,4.5,6.0,53,0.00,,---,0.00,VWS V13.01,2013-02-28 03:51:00,
2013-02-27 21:57:00,29.8,15.2,29.99,NNE,14,3.6,8.3,54,0.00,,---,0.00,VWS V13.01,2013-02-28 03:57:00,
2013-02-27 22:03:00,29.7,15.1,29.99,NNE,21,12.1,12.1,54,0.00,,---,0.00,VWS V13.01,2013-02-28 04:03:00,
2013-02-27 22:08:00,29.7,15.1,29.99,NNE,26,6.5,6.9,54,0.00,,---,0.00,VWS V13.01,2013-02-28 04:08:00,
2013-02-27 22:13:00,29.7,15.1,30.02,NE,54,8.3,8.3,54,0.00,,---,0.00,VWS V13.01,2013-02-28 04:13:00,
2013-02-27 22:18:00,29.7,15.1,30.02,NNE,25,5.1,6.0,54,0.00,,---,0.00,VWS V13.01,2013-02-28 04:18:00,
2013-02-27 22:23:00,29.5,14.9,30.02,NE,36,7.4,7.4,54,0.00,,---,0.00,VWS V13.01,2013-02-28 04:23:00,
2013-02-27 22:28:00,29.5,14.9,30.02,NNE,29,6.5,6.9,54,0.00,,---,0.00,VWS V13.01,2013-02-28 04:28:00,
2013-02-27 22:34:00,29.5,14.5,30.02,NE,39,7.4,7.4,53,0.00,,---,0.00,VWS V13.01,2013-02-28 04:34:00,
2013-02-27 22:39:00,29.3,14.3,30.02,NNE,15,6.9,10.3,53,0.00,,---,0.00,VWS V13.01,2013-02-28 04:39:00,
2013-02-27 22:45:00,29.3,14.3,30.02,East,80,5.1,5.1,53,0.00,,---,0.00,VWS V13.01,2013-02-28 04:45:00,
2013-02-27 22:50:00,29.1,14.1,30.02,North,350,8.7,10.7,53,0.00,,---,0.00,VWS V13.01,2013-02-28 04:50:00,
2013-02-27 22:55:00,28.9,14.0,30.02,ENE,78,5.6,8.9,53,0.00,,---,0.00,VWS V13.01,2013-02-28 04:55:00,
2013-02-27 23:00:00,28.9,14.0,30.02,NNE,33,5.1,7.4,53,0.00,,---,0.00,VWS V13.01,2013-02-28 05:00:00,
2013-02-27 23:01:00,28.9,14.0,30.02,NNE,27,6.5,7.4,53,0.00,,---,0.00,VWS V13.01,2013-02-28 05:01:00,
2013-02-27 23:03:00,28.8,13.8,30.02,North,10,6.5,7.8,53,0.00,,---,0.00,VWS V13.01,2013-02-28 05:03:00,
2013-02-27 23:04:00,28.8,13.8,30.02,NE,41,6.9,6.9,53,0.00,,---,0.00,VWS V13.01,2013-02-28 05:04:00,
2013-02-27 23:09:00,28.8,13.8,30.02,NE,35,6.9,8.3,53,0.00,,---,0.00,VWS V13.01,2013-02-28 05:09:00,
2013-02-27 23:15:00,28.6,13.6,30.02,NE,47,7.8,10.3,53,0.00,,---,0.00,VWS V13.01,2013-02-28 05:15:00,
2013-02-27 23:20:00,28.6,13.6,30.02,NNE,16,4.5,6.0,53,0.00,,---,0.00,VWS V13.01,2013-02-28 05:20:00,
2013-02-27 23:26:00,28.4,13.9,30.02,NNE,23,10.7,10.7,54,0.00,,---,0.00,VWS V13.01,2013-02-28 05:26:00,
2013-02-27 23:31:00,28.4,13.9,30.02,East,84,4.5,6.5,54,0.00,,---,0.00,VWS V13.01,2013-02-28 05:31:00,
2013-02-27 23:37:00,28.2,13.7,30.02,NE,49,8.7,8.9,54,0.00,,---,0.00,VWS V13.01,2013-02-28 05:37:00,
2013-02-27 23:43:00,28.2,13.3,30.02,NE,50,9.4,9.4,53,0.00,,---,0.00,VWS V13.01,2013-02-28 05:43:00,
2013-02-27 23:48:00,28.0,13.1,30.02,NE,51,6.9,6.9,53,0.00,,---,0.00,VWS V13.01,2013-02-28 05:48:00,
2013-02-27 23:53:00,28.0,13.1,30.02,NNE,21,5.6,7.4,53,0.00,,---,0.00,VWS V13.01,2013-02-28 05:53:00,
2013-02-27 23:58:00,27.9,13.0,30.02,NNE,18,7.8,11.6,53,0.00,,---,0.00,VWS V13.01,2013-02-28 05:58:00,